Le nostre stazioni meteo in Italia

Pubblicità
Il mio iltempo24.it
Palermo/Punta Raisi, Italia (16405): Temperatura & dewpoint: 15.01.2017 22:00:00 - 21.01.2017 22:00:00 (CET)Palermo/Punta Raisi, Italia (16405): velocità del vento: 15.01.2017 22:00:00 - 21.01.2017 22:00:00 (CET)Palermo/Punta Raisi, Italia (16405): direzione del vento: 15.01.2017 22:00:00 - 21.01.2017 22:00:00 (CET)Palermo/Punta Raisi, Italia (16405): reduced air pressure: 15.01.2017 22:00:00 - 21.01.2017 22:00:00 (CET)Palermo/Punta Raisi, Italia (16405): visibility: 15.01.2017 22:00:00 - 21.01.2017 22:00:00 (CET)
Data & Tempo tt [°C] td [°C] ff [km/h] ff [kn] dd ppp [hPa] vv [km]
21.01.2017 22:00:00 17,0 5,0 35 19 ESE - 10
21.01.2017 21:00:00 17,0 6,0 28 15 SSE - 10
21.01.2017 20:00:00 17,0 6,0 24 13 SE - 10
21.01.2017 19:00:00 17,5 5,6 29 16 SE 1000,0 10
21.01.2017 18:00:00 17,0 7,0 35 19 SSE - 10
21.01.2017 17:00:00 17,0 7,0 35 19 SSE - 10
21.01.2017 16:00:00 18,0 5,8 31 17 SSE 1000,0 10
21.01.2017 15:00:00 19,0 6,0 21 11 SSE - 10
21.01.2017 14:00:00 19,0 5,0 21 11 E - 10
21.01.2017 13:00:00 17,2 4,3 13 7 ENE 1000,0 10
21.01.2017 12:00:00 17,0 4,0 9 5 ENE - 10
21.01.2017 11:00:00 17,0 4,0 11 6 NNE - 10
21.01.2017 10:00:00 16,8 3,6 16 9 SE 1000,0 10
21.01.2017 09:00:00 16,0 4,0 13 7 ESE - 10
21.01.2017 08:00:00 16,0 4,0 34 18 ESE - 10
21.01.2017 07:00:00 15,8 4,1 15 8 E 1000,0 10
21.01.2017 06:00:00 16,0 5,0 11 6 ESE - 10
21.01.2017 05:00:00 16,0 4,0 8 4 ENE - 10
21.01.2017 04:00:00 14,6 4,1 4 2 SSE 1000,0 10
21.01.2017 03:00:00 14,0 4,0 5 3 E - 10
21.01.2017 02:00:00 12,0 4,0 9 5 E - 10
21.01.2017 01:00:00 13,3 5,0 2 1 E 1000,0 10
21.01.2017 00:00:00 14,0 6,0 5 3 SE - 10
20.01.2017 23:00:00 14,0 4,0 11 6 E - 10
20.01.2017 22:00:00 14,0 3,5 13 7 E 1000,0 10
20.01.2017 21:00:00 14,0 4,0 24 13 E - 10
20.01.2017 20:00:00 13,0 6,0 22 12 ENE - 10
20.01.2017 19:00:00 12,7 6,1 28 15 ENE 1000,0 10
20.01.2017 18:00:00 12,0 6,0 28 15 ENE - 10
20.01.2017 17:00:00 13,0 6,0 24 13 ENE - 10
20.01.2017 16:00:00 14,2 6,0 28 15 E 1000,0 10
20.01.2017 15:00:00 15,0 6,0 28 15 ENE - 10
20.01.2017 14:00:00 15,0 7,0 28 15 ENE - 10
20.01.2017 13:00:00 13,9 6,2 26 14 ENE 1000,0 10
20.01.2017 12:00:00 13,0 6,0 5 3 O - 10
20.01.2017 11:00:00 12,0 6,0 5 3 OSO - 10
20.01.2017 10:00:00 11,7 6,2 5 3 SSO 1000,0 10
20.01.2017 09:00:00 7,0 3,0 8 4 S - 10
20.01.2017 08:00:00 9,0 3,0 5 3 E - 10
20.01.2017 07:00:00 8,0 3,0 9 5 ENE 1000,0 10
20.01.2017 06:00:00 5,0 2,0 9 5 S - 10
20.01.2017 05:00:00 8,0 2,0 5 3 S - 10
20.01.2017 04:00:00 - - - - - - -
20.01.2017 03:00:00 7,0 3,0 4 2 SE - 10
20.01.2017 02:00:00 8,0 4,0 5 3 S - 10
20.01.2017 01:00:00 10,3 4,7 4 2 S 1000,0 10
20.01.2017 00:00:00 8,0 4,0 4 2 S - 10
19.01.2017 23:00:00 9,0 4,0 4 2 SSE - 10
19.01.2017 22:00:00 8,2 4,0 8 4 SSE 1000,0 10
19.01.2017 21:00:00 9,0 4,0 5 3 ESE - 10
19.01.2017 20:00:00 9,0 5,0 13 7 E - 10
19.01.2017 19:00:00 9,2 5,0 13 7 ENE 1000,0 10
19.01.2017 18:00:00 9,0 5,0 15 8 ENE - 10
19.01.2017 17:00:00 11,0 6,0 9 5 ENE - 10
19.01.2017 16:00:00 13,1 5,4 5 3 N 1000,0 10
19.01.2017 15:00:00 14,0 5,0 4 2 NNO - 10
19.01.2017 14:00:00 13,0 6,0 8 4 O - 10
19.01.2017 13:00:00 12,9 5,5 9 5 OSO 1000,0 10
19.01.2017 12:00:00 13,0 6,0 9 5 SO - 10
19.01.2017 11:00:00 13,0 6,0 13 7 S - 10
19.01.2017 10:00:00 11,5 5,4 9 5 SO 1000,0 20
19.01.2017 09:00:00 9,0 5,0 15 8 S - 10
19.01.2017 08:00:00 8,0 4,0 16 9 S - 10
19.01.2017 07:00:00 7,2 4,0 16 9 SO 1000,0 10
19.01.2017 06:00:00 - - - - - - -
19.01.2017 05:00:00 - - - - - - -
19.01.2017 04:00:00 7,4 4,5 18 10 SSO 1000,0 10
19.01.2017 03:00:00 8,0 5,0 13 7 S - 10
19.01.2017 02:00:00 8,0 5,0 16 9 SSE - 10
19.01.2017 01:00:00 8,3 5,7 24 13 SSO 1000,0 7
19.01.2017 00:00:00 9,0 5,0 21 11 S - 10
18.01.2017 23:00:00 9,0 5,0 18 10 S - 10
18.01.2017 22:00:00 9,1 4,9 21 11 S 1000,0 10
18.01.2017 21:00:00 11,0 6,0 21 11 OSO - 10
18.01.2017 20:00:00 12,0 6,0 22 12 O - 10
18.01.2017 19:00:00 11,5 6,4 26 14 O 1000,0 10
18.01.2017 18:00:00 11,0 6,0 29 16 O - 10
18.01.2017 17:00:00 11,0 6,0 29 16 O - 10
18.01.2017 16:00:00 11,0 7,1 35 19 ONO 1000,0 10
18.01.2017 15:00:00 11,0 8,0 39 21 ONO - 10
18.01.2017 14:00:00 11,0 7,0 37 20 OSO - 10
18.01.2017 13:00:00 10,2 6,0 34 18 OSO 1000,0 10
18.01.2017 12:00:00 9,0 6,0 26 14 OSO - 10
18.01.2017 11:00:00 8,0 5,0 26 14 S - 10
18.01.2017 10:00:00 7,9 5,7 24 13 SO 1000,0 10
18.01.2017 09:00:00 6,0 4,0 8 4 S - 10
18.01.2017 08:00:00 5,0 3,0 18 10 ENE - 10
18.01.2017 07:00:00 5,5 3,3 16 9 NE 1000,0 6
18.01.2017 06:00:00 6,0 4,0 4 2 ENE - 3,0
18.01.2017 05:00:00 - - - - - - -
18.01.2017 04:00:00 6,5 3,1 5 3 ENE 1000,0 9
18.01.2017 03:00:00 - - - - - - -
18.01.2017 02:00:00 7,0 3,0 22 12 S - 10
18.01.2017 01:00:00 6,5 2,4 11 6 S 1000,0 10
18.01.2017 00:00:00 7,0 2,0 18 10 S - 10
17.01.2017 23:00:00 7,0 1,0 18 10 SSE - 10
17.01.2017 22:00:00 7,0 1,0 24 13 S 1000,0 10
17.01.2017 21:00:00 7,0 2,0 28 15 S - 10
17.01.2017 20:00:00 6,0 2,0 24 13 S - 10
17.01.2017 19:00:00 5,5 2,3 15 8 S 1000,0 10
17.01.2017 18:00:00 6,0 3,0 22 12 SSO - 10
17.01.2017 17:00:00 7,0 3,0 28 15 SSO - 10
17.01.2017 16:00:00 7,6 2,3 26 14 SSO 1000,0 10
17.01.2017 15:00:00 7,0 3,0 15 8 S - 10
17.01.2017 14:00:00 6,0 3,0 29 16 SSO - 10
17.01.2017 13:00:00 7,2 3,4 18 10 S 1000,0 10
17.01.2017 12:00:00 8,0 5,0 31 17 OSO - 10
17.01.2017 11:00:00 6,0 3,0 35 19 S - 10
17.01.2017 10:00:00 6,7 3,6 29 16 S 1000,0 8
17.01.2017 09:00:00 9,0 4,0 34 18 O - 10
17.01.2017 08:00:00 8,0 5,0 44 24 O - 10
17.01.2017 07:00:00 6,1 2,9 42 23 S 1000,0 10
17.01.2017 06:00:00 7,0 4,0 26 14 S - 10
17.01.2017 05:00:00 6,0 3,0 16 9 SSE - 10
17.01.2017 04:00:00 6,6 2,7 16 9 S 1000,0 10
17.01.2017 03:00:00 7,0 3,0 11 6 S - 10
17.01.2017 02:00:00 6,0 3,0 21 11 S - 10
17.01.2017 01:00:00 0,0 0,0 21 11 S 1000,0 10
17.01.2017 00:00:00 7,0 2,0 31 17 S - 10
16.01.2017 23:00:00 6,0 2,0 16 9 S - 10
16.01.2017 22:00:00 6,3 2,1 16 9 S 1000,0 10
16.01.2017 21:00:00 8,0 3,0 18 10 S - 10
16.01.2017 20:00:00 9,0 5,0 34 18 SO - 10
16.01.2017 19:00:00 10,9 4,3 29 16 O 1000,0 10
16.01.2017 18:00:00 11,0 5,0 31 17 O - 10
16.01.2017 17:00:00 10,0 5,0 24 13 OSO - 10
16.01.2017 16:00:00 10,0 5,9 52 28 O 1000,0 10
16.01.2017 15:00:00 11,0 4,0 35 19 ONO - 10
16.01.2017 14:00:00 9,0 5,0 52 28 NO - 10
16.01.2017 13:00:00 11,1 6,0 35 19 ONO 1000,0 10
16.01.2017 12:00:00 11,0 6,0 26 14 O - 10
16.01.2017 11:00:00 12,0 6,0 35 19 NO - 10
16.01.2017 10:00:00 11,6 5,3 35 19 NO 1000,0 10
16.01.2017 09:00:00 11,0 5,0 28 15 NO - 10
16.01.2017 08:00:00 8,0 4,0 26 14 S - 10
16.01.2017 07:00:00 6,6 3,3 39 21 S 1000,0 10
16.01.2017 06:00:00 7,0 3,0 29 16 S - 10
16.01.2017 05:00:00 7,0 3,0 29 16 S - 10
16.01.2017 04:00:00 6,8 3,3 28 15 SSO 1000,0 10
16.01.2017 03:00:00 7,0 3,0 29 16 S - 10
16.01.2017 02:00:00 6,0 4,0 16 9 S - 7
16.01.2017 01:00:00 6,4 4,2 18 10 S 1000,0 5
16.01.2017 00:00:00 8,0 4,0 21 11 S - 8
15.01.2017 23:00:00 8,0 5,0 31 17 S - 8
15.01.2017 22:00:00 7,8 3,9 28 15 S 1000,0 8

tt = Temperatura
td = dewpoint
ff = velocità del vento
dd = direzione del vento
ppp = reduced air pressure
vv = visibility

Stazioni seguenti

WeatherPro
AMSI
MeteoEarth